Temperature
32 32 32 32 33 33 33 33 32 33 34 34 34 34 34 33 33 32 31 30 29 28 27 26 25 24 22 21 21 21 20 20 20 19 19 19 19 19 19 19 19 19 19 19
32 32 33 34 34 33 33 32 32 33 34 34 34 34 35 34 34 33 32 30 29 28 27 26 25 24 23 22 21 21 21 20 20 20 20 20 20 20 19 19 19 19 19 19
32 33 34 34 34 33 33 33 32 32 33 34 34 33 34 34 34 33 32 31 30 29 28 26 25 24 23 22 21 21 21 20 20 20 20 20 20 20 20 20 19 19 19 19
33 34 34 33 33 33 32 33 33 32 31 32 33 31 33 34 34 34 33 32 31 30 28 27 26 25 24 23 22 21 21 21 21 20 20 20 20 20 20 20 20 20 19 19
32 33 33 33 33 33 33 34 33 32 31 31 32 32 32 33 32 33 33 32 31 30 29 27 26 25 25 24 23 22 21 21 21 21 20 20 20 20 20 20 20 20 19 19
33 34 34 34 34 34 34 33 33 32 32 30 31 32 31 33 32 32 32 32 32 31 29 28 27 26 25 24 23 22 21 21 21 21 20 20 20 20 20 20 20 20 19 19
32 33 34 34 33 33 33 32 31 30 30 30 32 32 31 33 33 33 32 32 31 31 30 28 27 26 25 24 24 22 22 21 21 21 20 20 20 20 20 20 20 20 20 19
30 31 33 33 33 32 32 32 30 29 30 31 32 31 32 33 33 33 32 32 31 31 30 29 28 27 26 25 24 23 22 22 21 21 21 20 20 20 20 20 20 20 20 20
30 31 33 33 34 33 32 32 33 31 31 30 31 31 32 32 32 33 33 32 32 31 30 29 28 27 26 25 24 23 22 22 21 21 21 21 20 20 20 20 20 20 20 20
31 30 32 33 33 33 32 32 32 31 29 29 30 31 30 30 31 32 32 31 30 30 29 29 28 27 26 25 24 24 23 22 22 21 21 21 20 20 20 20 20 20 19 19
31 29 30 31 31 31 31 31 31 31 30 29 29 30 31 30 30 30 30 30 30 29 29 28 28 27 26 25 24 24 23 22 22 21 21 20 20 20 20 20 20 20 19 19
30 29 29 30 32 32 31 31 31 29 29 29 29 29 31 30 30 30 30 29 28 28 28 27 27 27 26 25 24 23 23 22 21 21 20 20 20 20 20 20 19 19 19 19
28 27 27 28 30 31 31 31 31 31 30 29 29 29 30 30 29 29 29 28 28 27 27 26 26 26 26 25 24 23 23 22 21 20 20 20 20 19 19 19 19 19 19 19
26 27 27 27 28 29 29 30 31 30 29 29 29 29 29 29 28 28 27 27 27 26 26 25 25 25 25 24 24 23 22 22 21 21 20 19 19 19 19 19 19 19 19 19
27 26 27 28 29 29 29 30 30 30 29 29 28 29 28 28 27 27 26 26 25 25 25 25 24 24 23 23 23 22 22 21 21 20 20 19 19 19 19 18 19 18 18 18
26 25 26 26 28 29 28 29 29 29 29 29 29 28 28 27 26 26 25 25 25 24 24 23 23 22 22 22 21 21 21 21 20 20 19 19 19 18 18 18 18 18 18 18
25 24 24 24 26 27 27 28 28 28 29 29 28 27 27 26 26 25 25 24 24 23 23 22 22 21 21 21 20 20 20 20 19 19 19 18 18 18 18 18 18 18 17 17
24 23 23 24 24 24 26 29 29 28 28 28 27 27 26 26 25 25 24 24 23 23 22 21 21 20 20 20 20 19 19 19 19 19 18 18 18 18 18 17 17 17 17 17
25 24 23 23 24 24 26 27 28 27 26 27 26 26 25 25 25 24 24 23 22 22 21 20 20 20 20 19 19 19 19 19 18 18 18 18 18 17 17 17 17 17 17 17
25 24 23 23 22 23 25 26 27 26 25 25 25 25 24 24 24 23 22 22 21 21 20 20 19 19 19 19 18 18 18 18 18 18 17 17 17 17 17 17 17 17 17 17
23 23 22 22 22 23 25 26 26 24 23 23 24 23 23 23 22 22 21 21 20 20 19 19 19 18 18 18 18 18 17 17 17 17 17 17 17 17 17 17 17 16 16 16
23 22 22 22 22 22 23 24 23 22 22 22 22 22 22 21 21 21 20 20 19 19 18 18 18 17 17 17 17 17 17 17 16 16 16 16 16 16 16 16 16 16 16 16
23 22 22 22 22 22 22 22 21 21 21 21 21 21 21 20 20 20 19 18 18 18 18 18 17 17 17 17 17 16 16 16 16 16 16 16 16 16 16 16 16 16 16 16
22 23 22 21 22 21 21 21 21 21 20 20 20 20 20 20 20 19 18 18 18 18 18 17 17 17 16 16 16 16 16 16 16 16 16 16 16 16 16 16 15 15 16 16
21 21 21 20 21 21 21 20 20 20 20 20 20 20 19 19 19 19 18 18 17 17 17 17 16 16 16 16 15 15 15 16 15 15 15 15 15 15 15 15 15 15 16 16
20 20 20 19 20 20 19 19 19 19 19 19 19 19 19 19 18 18 17 17 17 17 16 16 16 16 15 15 15 15 15 15 15 15 15 15 15 15 15 15 15 15 15 15
Wind_Speed
15 14 15 14 14 13 11 12 10 7 7 9 8 8 11 12 12 13 15 16 17 17 17 17 17 17 16 14 13 11 10 10 8 6 6 5 5 4 4 5 6 7 6 5
16 18 17 15 15 13 12 12 12 9 8 10 10 9 11 14 14 14 16 17 17 17 17 18 17 17 17 15 14 13 11 11 9 6 5 5 4 4 5 4 5 7 6 5
19 15 12 13 15 14 14 13 11 10 11 13 12 10 10 12 13 14 14 16 17 18 18 18 18 17 17 16 15 14 12 11 10 8 6 5 4 3 4 4 5 5 6 6
16 15 13 14 15 14 14 13 10 9 11 12 11 9 10 11 11 12 14 14 15 17 18 18 19 18 18 17 16 13 12 11 10 9 8 8 6 6 5 4 5 6 6 5
15 14 15 16 15 14 15 12 10 10 13 14 14 11 8 10 11 12 12 14 15 15 16 18 19 17 17 17 16 14 12 11 10 9 9 8 6 5 4 5 5 6 6 6
17 15 14 14 13 13 14 13 12 12 12 15 16 14 10 9 10 9 8 10 13 14 15 16 17 15 15 15 15 15 13 12 11 11 10 9 8 7 6 5 5 5 5 5
16 16 15 13 13 13 14 13 11 11 11 14 12 13 8 5 6 8 8 9 10 13 13 14 16 16 15 14 14 15 15 13 12 12 11 9 8 7 7 6 6 6 5 5
14 14 13 13 13 13 14 15 12 13 12 11 10 10 7 4 4 7 9 9 10 12 13 14 15 15 14 15 14 14 15 14 13 12 10 9 8 8 7 7 6 6 4 4
13 12 9 11 12 13 15 15 15 15 17 16 12 10 6 2 4 6 8 7 7 9 10 12 13 13 13 14 13 14 14 14 13 13 10 9 8 8 7 6 6 5 4 5
13 14 12 10 11 14 15 14 11 12 12 15 15 11 5 4 4 2 3 4 4 3 4 7 9 12 12 13 12 12 13 13 12 12 10 10 9 8 6 5 6 5 4 4
12 13 13 11 12 13 12 14 12 11 12 13 13 8 3 2 1 1 2 1 2 3 3 3 6 8 10 11 11 11 11 11 11 11 9 8 8 8 6 5 6 5 5 5
9 10 13 15 13 12 13 14 14 12 11 13 14 10 4 0 2 2 1 2 1 1 1 2 3 5 8 10 10 9 9 11 10 8 8 8 7 7 7 7 6 5 5 5
8 8 11 12 10 10 12 13 14 14 13 13 15 9 2 2 2 2 2 2 1 2 1 1 1 4 6 7 8 8 8 9 9 8 7 7 7 7 7 6 5 5 5 5
6 10 13 14 11 10 12 14 14 14 14 14 15 11 5 3 2 2 3 4 2 2 2 2 2 3 4 5 5 6 7 7 7 8 8 6 6 6 6 5 5 5 5 5
7 12 15 17 18 17 16 15 14 14 14 15 14 13 8 1 1 2 2 3 3 3 3 2 3 4 5 5 5 5 5 5 6 7 7 6 5 5 4 4 4 4 5 6
7 11 14 17 18 19 18 17 16 15 14 14 14 12 6 3 2 2 2 2 3 2 2 3 3 4 4 4 4 4 4 4 5 6 6 6 5 5 5 4 4 5 5 5
9 10 12 15 17 18 19 16 16 14 13 13 13 8 3 4 2 1 1 2 2 2 1 2 3 3 2 3 4 3 3 4 4 5 5 5 6 5 5 6 5 4 4 5
12 11 9 13 15 18 13 11 12 12 12 10 7 6 4 4 2 1 2 1 0 1 2 1 1 2 2 2 3 3 3 4 4 5 5 5 5 5 5 5 5 4 4 4
13 11 10 12 15 15 14 10 10 10 10 7 7 6 5 4 4 2 2 2 1 1 1 1 1 1 1 2 3 3 4 3 4 4 4 5 5 5 5 4 3 3 3 4
14 11 11 13 15 15 9 7 7 8 9 6 4 3 4 3 4 1 3 3 2 2 3 2 1 1 2 2 2 4 4 4 3 3 4 4 5 5 5 5 4 3 3 4
12 13 14 15 16 13 7 8 7 7 4 7 6 5 5 3 3 1 2 3 4 3 3 2 2 2 2 1 0 2 2 3 2 2 3 3 4 5 5 5 4 4 5 4
10 10 11 12 14 10 7 5 4 4 5 5 5 5 5 4 3 2 2 2 2 2 3 2 2 2 2 1 0 1 1 1 1 1 2 3 3 5 5 4 4 5 5 5
9 8 7 7 5 1 3 3 4 5 5 5 4 4 3 2 2 2 2 2 1 1 2 2 2 3 2 2 1 0 0 1 1 1 2 3 4 4 4 5 5 6 6 6
8 6 7 7 5 5 5 4 4 5 5 5 4 2 2 2 1 1 1 1 1 1 2 2 2 2 2 2 2 1 0 1 1 2 3 3 4 4 4 4 5 6 5 5
10 9 9 10 9 8 6 5 5 5 4 4 4 3 2 2 2 0 0 1 1 1 1 1 1 1 0 0 1 1 1 1 1 3 3 4 5 5 4 5 5 5 3 3
11 10 10 9 7 7 7 6 6 6 5 4 4 5 4 3 2 2 1 1 1 1 1 1 1 1 1 1 2 2 2 2 3 3 4 5 4 4 4 4 3 3 5 6
Wind_Direction
233 237 243 246 251 257 264 278 285 271 260 259 246 212 182 186 191 181 176 178 181 183 178 173 173 170 170 169 170 175 181 171 178 186 190 194 196 199 189 185 177 179 197 197
241 237 243 249 254 258 262 265 269 269 263 266 263 244 204 192 199 190 182 181 183 182 179 174 177 177 176 174 174 177 182 178 183 184 190 191 194 204 195 198 166 177 191 197
241 248 247 252 254 258 260 261 267 278 285 275 262 256 230 202 202 192 187 185 184 184 181 176 179 181 178 176 177 182 181 176 183 180 187 201 188 215 205 181 170 188 193 195
250 252 251 253 254 256 263 268 268 267 271 273 270 263 235 216 205 197 190 186 188 186 181 178 182 184 183 179 180 179 175 176 181 182 192 197 195 202 204 186 178 189 197 197
253 250 248 251 253 258 265 267 266 261 266 272 267 264 245 221 209 201 197 190 189 184 182 180 183 184 185 182 180 178 173 177 180 189 195 201 207 206 199 192 182 188 193 199
262 259 254 257 260 258 266 264 259 257 259 259 259 262 249 226 203 194 201 202 190 180 184 181 179 178 185 183 179 176 173 179 183 192 199 201 211 210 207 198 185 194 197 198
255 252 249 251 258 254 252 253 255 252 244 252 253 256 256 218 199 190 194 206 192 175 183 183 179 178 182 183 180 176 174 180 185 193 202 200 209 211 213 209 203 207 204 199
253 251 240 240 249 259 254 250 250 263 267 269 255 254 262 241 200 185 185 196 194 181 186 188 183 178 181 183 179 177 176 181 187 194 200 201 203 210 214 215 219 206 212 209
272 266 252 242 245 249 254 255 260 268 273 275 265 249 244 231 216 199 188 180 181 184 186 182 177 176 178 182 180 180 175 181 189 194 194 197 201 210 215 204 214 221 217 218
275 280 269 253 244 241 250 259 263 260 265 269 269 261 240 226 234 207 164 148 142 142 177 175 176 179 178 181 180 179 176 179 184 191 194 198 196 204 215 212 212 215 216 219
279 277 273 260 242 246 242 248 255 268 269 271 276 277 272 167 269 215 170 123 158 157 168 175 181 179 176 179 179 178 172 174 181 188 190 196 193 200 208 213 213 215 215 216
287 278 274 267 257 248 247 252 252 254 262 269 274 274 302 13 222 264 169 93 87 101 137 159 165 171 174 176 175 173 173 176 178 181 184 191 190 196 205 210 208 207 209 212
323 287 274 265 250 249 250 254 257 261 260 261 266 261 237 292 299 330 17 60 53 106 115 113 109 148 161 167 166 169 170 176 176 172 174 181 191 197 204 206 204 203 204 205
297 276 275 274 275 280 265 262 260 258 261 262 265 270 253 255 301 336 5 13 1 60 89 94 78 107 120 123 135 146 156 163 168 167 172 176 190 193 196 200 197 200 201 202
276 273 276 280 282 278 278 273 265 262 263 266 271 276 285 282 310 336 350 357 4 37 71 83 86 84 98 108 115 125 137 144 159 162 172 177 187 191 189 192 194 198 202 206
271 283 289 283 279 277 276 276 275 270 267 265 269 272 277 302 350 20 344 341 341 4 59 71 90 99 106 122 128 128 132 138 149 163 174 170 176 186 189 191 191 197 203 208
275 279 281 278 282 280 268 269 271 274 275 276 274 283 288 294 284 250 253 260 305 333 22 51 69 87 116 138 134 136 148 154 161 172 177 180 183 189 190 200 192 194 200 208
260 272 275 274 276 264 267 279 276 271 278 283 281 285 282 286 275 269 252 256 200 345 343 33 73 103 113 127 139 149 161 167 172 173 186 189 192 196 198 204 201 201 209 217
246 248 261 268 267 264 268 276 281 271 274 296 296 290 286 278 267 236 85 72 75 119 73 49 92 75 91 129 156 174 183 188 185 178 191 193 195 201 198 201 205 204 214 222
232 230 245 257 263 263 279 304 311 289 265 322 320 320 298 276 263 277 50 39 27 66 83 73 55 57 68 95 166 184 187 191 198 197 198 193 192 197 199 196 197 212 216 222
228 229 238 252 259 262 296 313 300 268 284 342 350 359 337 329 337 14 46 53 60 53 62 66 61 61 53 32 45 200 206 208 219 212 205 199 201 206 206 195 193 207 222 224
251 247 244 248 253 258 331 316 311 332 346 341 342 353 2 10 28 41 25 35 62 69 58 50 62 59 53 39 60 186 204 228 250 241 230 208 204 220 216 199 205 213 222 226
262 269 272 268 263 325 350 344 338 332 328 325 317 333 344 352 355 30 17 342 312 93 87 75 84 69 59 63 89 30 186 177 218 266 252 220 213 214 212 209 217 224 225 229
270 280 278 282 271 294 300 305 307 312 310 312 321 324 308 316 321 49 11 324 334 41 61 63 74 77 50 26 12 355 298 188 174 257 264 234 228 220 213 217 227 229 229 233
295 299 287 277 283 290 290 311 311 313 318 328 326 316 298 298 298 3 157 287 346 33 35 61 78 119 144 345 321 310 309 265 223 237 250 242 236 225 216 219 234 235 230 236
273 276 274 279 305 298 294 302 301 296 293 298 296 303 297 279 285 285 287 291 350 2 13 8 347 340 333 306 302 297 300 289 267 256 257 256 243 224 225 226 245 241 231 221
Height
1465 1467 1467 1461 1457 1458 1458 1461 1462 1457 1449 1450 1453 1454 1454 1458 1461 1466 1472 1477 1482 1487 1492 1496 1501 1504 1507 1510 1513 1516 1518 1521 1523 1526 1528 1530 1532 1533 1535 1536 1537 1537 1538 1539
1463 1462 1456 1453 1452 1453 1457 1462 1462 1455 1448 1450 1451 1450 1448 1452 1456 1460 1466 1472 1477 1483 1488 1492 1497 1501 1504 1507 1510 1513 1516 1518 1521 1523 1526 1528 1530 1532 1533 1534 1535 1536 1537 1538
1460 1453 1449 1450 1452 1455 1456 1458 1460 1460 1452 1448 1451 1455 1449 1447 1450 1455 1461 1466 1471 1477 1482 1487 1492 1496 1500 1503 1506 1509 1512 1515 1518 1521 1524 1527 1528 1530 1532 1533 1533 1534 1535 1536
1451 1447 1448 1450 1452 1452 1459 1449 1452 1458 1464 1464 1456 1470 1453 1445 1447 1451 1455 1461 1466 1471 1477 1482 1487 1492 1496 1499 1503 1506 1509 1512 1515 1518 1521 1523 1525 1527 1528 1530 1531 1532 1533 1534
1450 1446 1448 1451 1448 1448 1450 1446 1450 1455 1460 1465 1458 1465 1456 1443 1449 1449 1451 1456 1461 1467 1472 1477 1482 1487 1492 1496 1499 1503 1506 1509 1512 1515 1518 1520 1523 1525 1526 1528 1529 1530 1531 1532
1446 1442 1442 1443 1442 1443 1444 1447 1450 1452 1459 1475 1461 1463 1461 1445 1444 1445 1448 1452 1456 1462 1468 1473 1478 1483 1488 1492 1496 1499 1502 1505 1509 1512 1515 1517 1519 1522 1524 1525 1526 1527 1528 1529
1450 1442 1439 1440 1445 1443 1445 1456 1471 1476 1476 1471 1450 1456 1454 1439 1436 1439 1443 1448 1453 1457 1464 1469 1474 1479 1484 1488 1492 1495 1498 1501 1505 1508 1511 1513 1516 1518 1520 1522 1523 1524 1525 1526
1457 1453 1439 1438 1443 1447 1446 1451 1472 1484 1479 1464 1451 1456 1446 1433 1434 1436 1441 1446 1450 1455 1460 1464 1470 1475 1479 1484 1488 1492 1494 1497 1501 1504 1507 1510 1513 1515 1516 1518 1519 1521 1522 1523
1454 1451 1434 1434 1436 1441 1448 1447 1443 1457 1461 1467 1456 1447 1439 1434 1435 1437 1439 1443 1447 1452 1456 1461 1466 1470 1475 1479 1484 1487 1490 1494 1497 1500 1503 1506 1508 1511 1513 1514 1516 1517 1519 1520
1446 1453 1439 1433 1435 1436 1439 1441 1448 1457 1474 1477 1462 1451 1451 1442 1439 1437 1440 1443 1448 1451 1455 1458 1463 1467 1471 1476 1480 1484 1487 1489 1493 1496 1499 1502 1504 1506 1509 1511 1512 1513 1515 1516
1445 1453 1446 1439 1441 1443 1442 1445 1448 1450 1453 1469 1473 1461 1437 1440 1441 1441 1443 1445 1449 1452 1454 1457 1461 1464 1468 1472 1477 1480 1483 1486 1489 1493 1495 1498 1500 1502 1505 1507 1508 1509 1510 1512
1447 1450 1453 1443 1432 1432 1437 1441 1445 1459 1460 1456 1463 1460 1435 1437 1440 1442 1443 1447 1449 1452 1455 1457 1459 1462 1465 1469 1473 1477 1480 1483 1485 1489 1492 1494 1497 1499 1500 1502 1503 1505 1506 1507
1455 1459 1465 1455 1446 1438 1438 1437 1438 1441 1448 1455 1462 1459 1439 1440 1442 1444 1445 1448 1450 1452 1455 1456 1458 1460 1464 1467 1471 1474 1477 1480 1483 1486 1488 1491 1493 1495 1496 1497 1499 1500 1502 1503
1460 1460 1463 1466 1454 1444 1444 1440 1437 1442 1450 1453 1452 1450 1444 1443 1445 1447 1448 1450 1452 1453 1454 1456 1458 1460 1462 1465 1469 1472 1475 1478 1480 1482 1485 1487 1489 1491 1492 1494 1495 1497 1498 1499
1458 1461 1456 1451 1444 1441 1441 1439 1437 1440 1442 1449 1448 1446 1445 1444 1446 1448 1450 1451 1453 1454 1455 1456 1458 1460 1462 1464 1467 1470 1473 1475 1477 1479 1482 1484 1486 1488 1489 1491 1492 1494 1495 1496
1457 1462 1460 1457 1447 1442 1442 1438 1437 1437 1438 1441 1442 1443 1442 1445 1447 1450 1453 1453 1455 1455 1456 1457 1458 1459 1461 1463 1465 1468 1469 1472 1474 1476 1479 1481 1483 1485 1486 1487 1489 1490 1492 1493
1460 1463 1466 1464 1451 1447 1450 1440 1438 1437 1435 1438 1443 1444 1443 1446 1448 1450 1452 1454 1455 1456 1456 1457 1458 1459 1461 1462 1464 1465 1467 1469 1472 1474 1476 1478 1480 1482 1483 1485 1486 1487 1488 1490
1461 1465 1465 1463 1461 1468 1447 1433 1432 1435 1436 1436 1438 1441 1443 1446 1448 1450 1453 1454 1454 1456 1456 1456 1458 1459 1460 1462 1463 1465 1466 1468 1470 1471 1473 1475 1478 1479 1481 1482 1483 1484 1485 1487
1454 1460 1464 1464 1463 1455 1441 1434 1434 1438 1440 1437 1439 1440 1443 1445 1446 1450 1452 1454 1455 1456 1456 1456 1457 1458 1459 1460 1461 1463 1465 1466 1467 1468 1470 1472 1474 1476 1477 1478 1479 1480 1481 1483
1449 1454 1462 1462 1466 1463 1447 1437 1436 1438 1444 1441 1441 1442 1443 1444 1447 1449 1451 1453 1454 1455 1455 1455 1455 1457 1457 1458 1459 1461 1463 1464 1464 1466 1467 1469 1471 1472 1473 1474 1475 1476 1477 1478
1452 1454 1458 1460 1460 1451 1442 1439 1439 1451 1451 1446 1445 1445 1445 1446 1448 1450 1452 1453 1454 1454 1454 1454 1455 1455 1456 1456 1457 1458 1459 1460 1461 1463 1465 1466 1467 1468 1470 1470 1472 1473 1474 1475
1449 1452 1455 1456 1460 1457 1445 1443 1447 1450 1448 1447 1447 1447 1448 1448 1449 1450 1452 1453 1453 1453 1452 1453 1453 1453 1453 1453 1454 1455 1456 1458 1459 1460 1461 1462 1462 1465 1467 1468 1469 1470 1471 1472
1446 1447 1448 1450 1452 1449 1448 1448 1449 1449 1449 1448 1448 1448 1449 1449 1449 1450 1452 1452 1452 1451 1451 1452 1452 1452 1452 1452 1452 1453 1454 1455 1456 1458 1457 1458 1460 1461 1463 1464 1465 1466 1467 1468
1444 1444 1446 1448 1446 1447 1447 1448 1449 1449 1449 1448 1447 1448 1449 1449 1450 1450 1451 1451 1451 1450 1450 1451 1451 1451 1452 1452 1452 1452 1453 1453 1453 1454 1455 1456 1457 1458 1459 1460 1462 1463 1463 1464
1449 1448 1448 1449 1447 1447 1447 1448 1449 1449 1448 1448 1448 1448 1449 1449 1449 1449 1450 1450 1450 1450 1450 1450 1450 1451 1451 1451 1451 1451 1451 1451 1451 1452 1453 1453 1454 1454 1456 1457 1458 1459 1459 1460
1449 1449 1450 1449 1449 1449 1449 1449 1449 1449 1448 1448 1448 1448 1448 1448 1448 1448 1449 1449 1449 1449 1449 1449 1450 1450 1450 1449 1449 1449 1449 1449 1449 1450 1450 1451 1451 1451 1452 1453 1454 1454 1455 1456